[[{"header":{"parameterUnit":"m.s-1","parameterCategory":1,"la1":30.2991,"la2":30.254,"lo1":-89.0895,"lo2":-89.0444,"dy":0.0017,"dx":0.0017,"nx":28,"ny":28,"refTime":"2025-07-19T21:00:00:Z","depth":0,"parameterNumber":2,"parameterNumberName":"U-component_of_WINDS"},"data":[0,0,0,0,0,0,0,0,0,0,0,0,0,0,0,0,0,0,0,0,0,0,0,0,0,0,0,0,0,0,0,0,0,0,0,0,0,0,0,0,0,0,0,0,0,0,0,0,0,0,0,0,0,0,0,0,0,0,3.5114,3.5116,0,3.5246,3.5247,3.5249,3.5222,3.522,3.5218,3.5215,3.5354,3.5359,3.5365,0,0,0,0,0,0,0,0,0,0,0,0,0,3.4845,3.485,3.5114,3.5116,3.5118,3.5245,3.5247,3.5249,3.5223,3.522,3.5217,3.5214,3.5352,3.5359,3.5366,0,0,0,0,0,0,0,0,0,0,0,0,0,3.4968,3.4852,3.5114,3.512,3.5122,3.5245,3.5247,3.525,3.5223,3.522,3.5216,3.5213,3.5349,3.5358,3.5367,3.5494,0,0,3.5394,3.5398,0,0,0,0,0,0,0,0,3.4961,3.4978,3.5117,3.512,3.5122,3.5214,3.5203,3.5332,3.5224,3.5185,3.5215,3.5211,3.531,3.5322,3.5355,3.55,3.5506,3.5395,3.54,3.5404,3.5406,0,0,0,0,0,0,0,3.4952,3.4972,3.5166,3.5119,3.5122,3.5117,3.5131,3.5227,3.5266,3.5188,3.5186,3.5202,3.5311,3.5346,3.5358,3.5508,3.5394,3.5402,3.5408,3.5411,3.5765,3.5769,0,0,0,0,0,0,3.4941,3.4965,3.5162,3.517,3.5031,3.5125,3.514,3.5188,3.5265,3.5273,3.5205,3.52,3.5333,3.5348,3.5363,3.5516,3.5404,3.5412,3.5417,3.5761,3.5766,3.577,0,0,0,0,0,0,3.4936,3.4959,3.5157,3.5067,3.5092,3.5133,3.5188,3.5193,3.5228,3.5278,3.5285,3.5234,3.5331,3.535,3.5461,3.5521,3.5416,3.5424,3.5756,3.5763,3.5768,3.5825,0,0,0,0,0,0,3.4928,3.4957,3.5005,3.5069,3.5097,3.5252,3.5191,3.5198,3.5243,3.5238,3.5307,3.5315,3.5329,3.5448,3.547,3.5531,3.5431,3.5751,3.5759,3.5766,3.5818,3.5832,3.5844,0,0,0,0,0,3.4918,3.5016,3.5007,3.5031,3.5157,3.5256,3.5272,3.5285,3.5248,3.5297,3.5329,3.5313,3.5511,3.546,3.5484,3.5549,3.5747,3.5757,3.5766,3.5812,3.5829,3.5844,0,0,0,0,0,0,3.496,3.5025,3.5015,3.5137,3.5191,3.5251,3.5313,3.5303,3.537,3.5363,3.5378,3.5394,3.5507,3.5539,3.5481,3.5676,3.5624,3.5639,3.5651,3.5668,3.5681,3.5671,3.5439,0,0,0,0,0,3.4983,3.5056,3.5109,3.5211,3.5239,3.5271,3.5315,3.532,3.5377,3.54,3.5441,3.5498,3.5573,3.5622,3.5694,3.5823,3.5838,3.588,3.5893,3.5903,3.5916,3.5986,3.6006,3.5801,3.58,3.58,0,0,3.5031,3.5076,3.5121,3.5221,3.5263,3.534,3.5291,3.5374,3.5431,3.5414,3.552,3.5552,3.5617,3.5737,3.5793,3.5768,3.5976,3.5915,3.5923,3.593,3.5998,3.6017,3.6035,3.5807,3.5806,3.5805,0,0,3.5159,3.52,3.5289,3.5332,3.5397,3.5418,3.544,3.5502,3.5522,3.5629,3.5618,3.5687,3.5816,3.5863,3.5904,3.605,3.6038,3.6073,3.6142,3.6211,3.6227,3.6242,3.6294,3.6313,3.6085,3.6086,3.6086,0,3.5211,3.5325,3.5336,3.5421,3.5465,3.5452,3.5543,3.5585,3.5671,3.5702,3.5673,3.5835,3.5878,3.6009,3.6045,3.6078,3.6104,3.6065,3.6224,3.6238,3.6252,3.6302,3.6322,3.6089,3.6089,3.6089,3.6088,0,3.5386,3.5466,3.553,3.5612,3.5664,3.5751,3.5777,3.5829,3.583,3.5855,3.5965,3.6016,3.6098,3.613,3.6133,3.6262,3.6245,3.622,3.6167,3.6275,3.6322,3.6342,3.6095,3.6093,3.6092,3.6091,0,0,3.5543,3.563,3.5653,3.569,3.5761,3.5823,3.5911,3.599,3.6034,3.6094,3.6168,3.6278,3.6255,3.6301,3.631,3.637,3.6483,3.6338,3.634,3.6363,3.6629,3.6647,3.6669,3.6476,3.6479,3.6482,3.6623,0,3.5676,3.5829,3.5842,3.598,3.6054,3.6043,3.6119,3.6172,3.6198,3.6265,3.6294,3.6372,3.6336,3.6364,3.6423,3.6457,3.6537,3.6447,3.6546,3.6549,3.6529,3.6693,3.6713,3.6843,3.6642,3.6645,3.6647,0,3.5853,3.5916,3.6061,3.6122,3.6153,3.6221,3.6295,3.636,3.642,3.6434,3.6486,3.6486,3.6578,3.6523,3.665,3.6588,3.663,3.6652,3.6658,3.6667,3.6604,3.6707,3.6885,3.6905,3.6677,3.6674,3.6672,0,3.5952,3.6074,3.6176,3.6209,3.6282,3.633,3.6364,3.642,3.6467,3.6532,3.6563,3.6638,3.668,3.6739,3.676,3.6718,3.6887,3.6833,3.6902,3.6901,3.6937,3.6935,3.7124,3.6965,3.6965,3.6964,3.6964,0,3.6099,3.6188,3.6222,3.6285,3.6385,3.64,3.6499,3.653,3.658,3.665,3.6646,3.6712,3.6736,3.6806,3.6824,3.6926,3.6945,3.696,3.6964,3.696,3.6959,3.6987,3.6979,3.697,3.6968,3.6967,3.6966,0,3.6227,3.6253,3.6364,3.6424,3.6441,3.6512,3.6565,3.6626,3.6651,3.6739,3.6761,3.6801,3.6884,3.6911,3.7011,3.7023,3.7142,3.7138,3.7122,3.7122,3.7189,3.7183,3.7404,3.7434,3.7255,3.7257,3.7258,0,3.6319,3.6387,3.6455,3.65,3.6535,3.6609,3.6657,3.6675,3.6725,3.6799,3.6852,3.6933,3.6999,3.7132,3.7171,3.7248,3.7245,3.7318,3.7257,3.7251,3.7246,3.7242,3.7249,3.7329,3.7331,3.7332,3.7333,0,3.648,3.6489,3.6557,3.6631,3.6687,3.6746,3.6803,3.6841,3.6868,3.6925,3.7008,3.706,3.7162,3.7243,3.7322,3.7357,3.7351,3.7352,3.7372,3.7369,3.7357,3.7364,3.7152,3.7347,3.7346,3.7345,3.7344,3.7343,3.6592,3.6652,3.6709,3.6785,3.683,3.6883,3.6944,3.6976,3.7046,3.7129,3.7137,3.7227,3.7286,3.7391,3.7431,3.7503,3.7482,3.7511,3.7519,3.7525,3.753,3.7346,3.7517,3.7517,3.7516,3.7516,3.7516,0,3.6753,3.6789,3.6859,3.6938,3.6998,3.6985,3.7048,3.71,3.7179,3.7234,3.7299,3.7396,3.7475,3.752,3.7599,3.7648,3.7647,3.7668,3.7665,3.7673,3.7544,3.7519,3.7668,3.7668,3.7668,3.7668,3.7668,3.7668,3.6843,3.6944,3.696,3.7084,3.712,3.7207,3.7244,3.7294,3.7338,3.7445,3.751,3.7539,3.7591,3.7674,3.7746,3.7757,3.7787,3.781,3.782,3.7698,3.7682,3.7667,3.7643,3.7817,3.7817,3.7943,3.7944,3.7945]},{"header":{"parameterUnit":"m.s-1","parameterCategory":1,"la1":30.2991,"la2":30.254,"lo1":-89.0895,"lo2":-89.0444,"dy":0.0017,"dx":0.0017,"nx":28,"ny":28,"refTime":"2025-07-19T21:00:00:Z","depth":0,"parameterNumber":3,"parameterNumberName":"V-component_of_WINDS"},"data":[0,0,0,0,0,0,0,0,0,0,0,0,0,0,0,0,0,0,0,0,0,0,0,0,0,0,0,0,0,0,0,0,0,0,0,0,0,0,0,0,0,0,0,0,0,0,0,0,0,0,0,0,0,0,0,0,0,0,-0.7865,-0.7865,0,-0.7895,-0.7895,-0.7896,-0.7914,-0.7914,-0.7914,-0.7914,-0.7944,-0.7945,-0.7946,0,0,0,0,0,0,0,0,0,0,0,0,0,-0.7823,-0.7824,-0.7865,-0.7865,-0.7866,-0.7895,-0.7895,-0.7896,-0.7914,-0.7914,-0.7914,-0.7914,-0.7944,-0.7945,-0.7946,0,0,0,0,0,0,0,0,0,0,0,0,0,-0.7846,-0.7824,-0.7865,-0.7878,-0.788,-0.7895,-0.7895,-0.7896,-0.7914,-0.7914,-0.7914,-0.7914,-0.7944,-0.7945,-0.7946,-0.795,0,0,-0.7949,-0.795,0,0,0,0,0,0,0,0,-0.7844,-0.7847,-0.7876,-0.7877,-0.7879,-0.7901,-0.7892,-0.7914,-0.7914,-0.7901,-0.7914,-0.7914,-0.793,-0.7932,-0.7937,-0.7952,-0.7953,-0.795,-0.795,-0.7951,-0.7951,0,0,0,0,0,0,0,-0.7843,-0.7846,-0.7877,-0.7876,-0.7878,-0.7883,-0.7886,-0.7896,-0.7914,-0.7902,-0.7903,-0.7907,-0.7931,-0.7936,-0.7938,-0.7953,-0.7949,-0.795,-0.7951,-0.7952,-0.7973,-0.7973,0,0,0,0,0,0,-0.7839,-0.7845,-0.7876,-0.7878,-0.7862,-0.7883,-0.7887,-0.7894,-0.7914,-0.7917,-0.7906,-0.7907,-0.7934,-0.7937,-0.7939,-0.7946,-0.7951,-0.7952,-0.7952,-0.7973,-0.7973,-0.7972,0,0,0,0,0,0,-0.7838,-0.7842,-0.7875,-0.7862,-0.7866,-0.7884,-0.7891,-0.7894,-0.79,-0.7918,-0.7921,-0.7909,-0.7935,-0.7938,-0.7947,-0.7947,-0.7952,-0.7953,-0.7973,-0.7973,-0.7973,-0.7958,0,0,0,0,0,0,-0.7837,-0.7841,-0.7843,-0.7861,-0.7867,-0.7882,-0.7891,-0.7895,-0.7902,-0.7903,-0.7921,-0.7924,-0.7935,-0.7946,-0.7948,-0.7948,-0.7954,-0.7973,-0.7973,-0.7973,-0.7958,-0.7957,-0.7956,0,0,0,0,0,-0.7835,-0.7838,-0.7843,-0.7847,-0.7869,-0.7882,-0.7885,-0.7898,-0.7901,-0.7903,-0.7915,-0.7923,-0.7947,-0.7947,-0.795,-0.795,-0.7973,-0.7973,-0.7973,-0.7959,-0.7957,-0.7956,0,0,0,0,0,0,-0.7818,-0.784,-0.7846,-0.7855,-0.7866,-0.7885,-0.7888,-0.7896,-0.7907,-0.7907,-0.7923,-0.7927,-0.7935,-0.7944,-0.7943,-0.7955,-0.7961,-0.7961,-0.7949,-0.7948,-0.7947,-0.7944,-0.7955,0,0,0,0,0,-0.7816,-0.7824,-0.7843,-0.7848,-0.7854,-0.787,-0.7876,-0.7885,-0.7897,-0.7902,-0.7915,-0.7926,-0.7936,-0.7943,-0.7953,-0.796,-0.7964,-0.7962,-0.7961,-0.796,-0.796,-0.7964,-0.7963,-0.7972,-0.7972,-0.7972,0,0,-0.781,-0.7823,-0.7827,-0.7845,-0.7855,-0.7864,-0.7874,-0.7882,-0.7889,-0.7904,-0.7913,-0.7923,-0.7937,-0.7945,-0.795,-0.7953,-0.7958,-0.7959,-0.7958,-0.7959,-0.7964,-0.7963,-0.7962,-0.7972,-0.7972,-0.7972,0,0,-0.7804,-0.7815,-0.7821,-0.7831,-0.7846,-0.7856,-0.7858,-0.7875,-0.7882,-0.7892,-0.7904,-0.7912,-0.7928,-0.7938,-0.7945,-0.7943,-0.7951,-0.7946,-0.794,-0.7944,-0.7944,-0.7943,-0.7942,-0.7942,-0.7946,-0.7946,-0.7946,0,-0.7795,-0.7808,-0.7823,-0.783,-0.7838,-0.7852,-0.7858,-0.7867,-0.7885,-0.7889,-0.7893,-0.7915,-0.7925,-0.7936,-0.7936,-0.7941,-0.7943,-0.7944,-0.7942,-0.7942,-0.7942,-0.7941,-0.7941,-0.7946,-0.7946,-0.7946,-0.7946,0,-0.7797,-0.7806,-0.7808,-0.7825,-0.7833,-0.784,-0.7855,-0.7861,-0.787,-0.788,-0.789,-0.7904,-0.7917,-0.792,-0.7928,-0.7932,-0.7934,-0.794,-0.7945,-0.794,-0.794,-0.794,-0.7945,-0.7945,-0.7945,-0.7945,0,0,-0.778,-0.7805,-0.7806,-0.7814,-0.7832,-0.7839,-0.7847,-0.786,-0.7865,-0.7877,-0.7883,-0.7897,-0.7903,-0.7911,-0.7921,-0.7924,-0.7922,-0.793,-0.7931,-0.7928,-0.7927,-0.7922,-0.7921,-0.7928,-0.7928,-0.7928,-0.7926,0,-0.7777,-0.7791,-0.7804,-0.7814,-0.7822,-0.7836,-0.7843,-0.7854,-0.7864,-0.7873,-0.7884,-0.7894,-0.79,-0.7905,-0.791,-0.7921,-0.7922,-0.7922,-0.7934,-0.7934,-0.7929,-0.7921,-0.7916,-0.7914,-0.7926,-0.7926,-0.7926,0,-0.7774,-0.7786,-0.7796,-0.7813,-0.7817,-0.7823,-0.7836,-0.7844,-0.7858,-0.7865,-0.7874,-0.7884,-0.7893,-0.7898,-0.791,-0.791,-0.7916,-0.7922,-0.7923,-0.7924,-0.7929,-0.7922,-0.7913,-0.7913,-0.7926,-0.7926,-0.7926,0,-0.7761,-0.7779,-0.7788,-0.7794,-0.7814,-0.7818,-0.7827,-0.7841,-0.7848,-0.7859,-0.7864,-0.7876,-0.7883,-0.7892,-0.7906,-0.7908,-0.7916,-0.7923,-0.7922,-0.7922,-0.7923,-0.7923,-0.7914,-0.7927,-0.7927,-0.7927,-0.7927,0,-0.7756,-0.7761,-0.7782,-0.7787,-0.7794,-0.7809,-0.7816,-0.7825,-0.7838,-0.7845,-0.7858,-0.7865,-0.7882,-0.7891,-0.7901,-0.791,-0.7913,-0.7918,-0.7921,-0.7917,-0.7916,-0.7921,-0.7921,-0.7927,-0.7927,-0.7927,-0.7927,0,-0.7742,-0.7756,-0.7766,-0.7785,-0.7789,-0.7794,-0.781,-0.7815,-0.7826,-0.7835,-0.7838,-0.7855,-0.7866,-0.788,-0.7896,-0.7903,-0.791,-0.7915,-0.7906,-0.7907,-0.7906,-0.7906,-0.79,-0.79,-0.7913,-0.7913,-0.7913,0,-0.7737,-0.7742,-0.7761,-0.7767,-0.7775,-0.7784,-0.7792,-0.7807,-0.7814,-0.783,-0.7834,-0.7846,-0.7856,-0.7873,-0.7887,-0.7899,-0.7904,-0.7901,-0.7905,-0.7901,-0.7903,-0.7903,-0.7903,-0.7899,-0.7899,-0.7899,-0.7899,0,-0.7727,-0.7734,-0.7744,-0.7757,-0.7765,-0.7776,-0.7787,-0.7791,-0.7809,-0.7816,-0.7827,-0.7835,-0.7851,-0.7863,-0.7877,-0.7886,-0.7895,-0.7897,-0.7898,-0.7894,-0.7888,-0.7891,-0.7902,-0.7897,-0.7897,-0.7898,-0.7898,-0.7898,-0.7717,-0.7722,-0.7737,-0.7747,-0.7758,-0.7768,-0.7774,-0.7786,-0.7796,-0.781,-0.7818,-0.7829,-0.7843,-0.7863,-0.7872,-0.7881,-0.7884,-0.7885,-0.7885,-0.7885,-0.7883,-0.7887,-0.7883,-0.7883,-0.7883,-0.7883,-0.7883,0,-0.7708,-0.7718,-0.7728,-0.7743,-0.7752,-0.776,-0.7773,-0.7779,-0.7789,-0.7801,-0.7811,-0.7825,-0.7836,-0.7851,-0.7864,-0.7868,-0.7873,-0.7871,-0.7871,-0.7872,-0.788,-0.7878,-0.7867,-0.7867,-0.7867,-0.7867,-0.7867,-0.7867,-0.7704,-0.7712,-0.7721,-0.7735,-0.7745,-0.7756,-0.7763,-0.7772,-0.7782,-0.7796,-0.7806,-0.7816,-0.7829,-0.7843,-0.7854,-0.7858,-0.7862,-0.7859,-0.7864,-0.787,-0.7872,-0.7873,-0.7872,-0.786,-0.786,-0.7856,-0.7856,-0.7856]}]]